This is the latest recevied weather packets stored in our database for station/object SP1BMW-13. If no packets are shown the sender has not sent any weather packets the latest 10 day(s).
| Time | Temp. | Humidity | Pressure | Rain* | Wind** | Luminosity | Snow |
|---|---|---|---|---|---|---|---|
| 1778086852 | 10.56° C | 89% | 1006.9 hPa | 0 mm | 0 m/s | 37 W/m² | - |
| 1778086792 | 10.56° C | 89% | 1006.7 hPa | 0 mm | 0.89 m/s, 17° | 34 W/m² | - |
| 1778086731 | 10.56° C | 89% | 1006.9 hPa | 0 mm | 0.45 m/s, 319° | 26 W/m² | - |
| 1778086671 | 10.56° C | 89% | 1006.8 hPa | 0 mm | 0.89 m/s, 318° | 17 W/m² | - |
| 1778086611 | 10.56° C | 89% | 1006.7 hPa | 0 mm | 0 m/s | 16 W/m² | - |
| 1778086551 | 10.56° C | 89% | 1006.8 hPa | 0 mm | 0.45 m/s, 309° | 18 W/m² | - |
| 1778086492 | 10.56° C | 89% | 1006.9 hPa | 0 mm | 0 m/s | 22 W/m² | - |
| 1778086431 | 10.56° C | 89% | 1006.8 hPa | 0 mm | 1.79 m/s, 331° | 27 W/m² | - |
| 1778086371 | 10.56° C | 89% | 1006.7 hPa | 0 mm | 1.79 m/s, 318° | 25 W/m² | - |
| 1778086312 | 10.56° C | 89% | 1006.8 hPa | 0 mm | 0.89 m/s, 322° | 27 W/m² | - |
| 1778086251 | 10.56° C | 89% | 1006.9 hPa | 0 mm | 1.34 m/s, 44° | 29 W/m² | - |
| 1778086191 | 10.56° C | 89% | 1006.7 hPa | 0 mm | 0.89 m/s, 341° | 30 W/m² | - |
| 1778086131 | 10.56° C | 89% | 1006.7 hPa | 0 mm | 1.34 m/s, 344° | 38 W/m² | - |
| 1778086071 | 10.56° C | 88% | 1006.7 hPa | 0 mm | 0.89 m/s, 306° | 42 W/m² | - |
| 1778086011 | 10.56° C | 88% | 1006.8 hPa | 0 mm | 0.89 m/s, 341° | 39 W/m² | - |
| 1778085951 | 10.56° C | 89% | 1006.9 hPa | 0 mm | 1.79 m/s, 269° | 37 W/m² | - |
| 1778085891 | 10.56° C | 89% | 1006.8 hPa | 0 mm | 0.89 m/s, 302° | 35 W/m² | - |
| 1778085831 | 10.56° C | 89% | 1006.6 hPa | 0 mm | 0.89 m/s, 14° | 31 W/m² | - |
| 1778085771 | 10.56° C | 89% | 1006.8 hPa | 0 mm | 0 m/s | 23 W/m² | - |
| 1778085711 | 10.56° C | 89% | 1006.7 hPa | 0 mm | 0 m/s | 22 W/m² | - |
| 1778085651 | 10.56° C | 88% | 1006.4 hPa | 0 mm | 0.89 m/s, 345° | 22 W/m² | - |
| 1778085591 | 10.56° C | 88% | 1006.7 hPa | 0 mm | 0 m/s | 23 W/m² | - |
| 1778085531 | 10.56° C | 88% | 1006.8 hPa | 0 mm | 0.45 m/s, 336° | 24 W/m² | - |
| 1778085471 | 10.56° C | 88% | 1006.7 hPa | 0 mm | 0.89 m/s, 342° | 27 W/m² | - |
| 1778085411 | 10.56° C | 88% | 1006.7 hPa | 0 mm | 0.89 m/s, 21° | 29 W/m² | - |
* Rain latest hour (hover to see other rain measurements)
** Current wind speed in m/s (hover to see current wind gust speed)